This is the latest recevied weather packets stored in our database for station/object N7BTW-13. If no packets are shown the sender has not sent any weather packets the latest 10 day(s).
| Time | Temp. | Humidity | Pressure | Rain* | Wind** | Luminosity | Snow |
|---|---|---|---|---|---|---|---|
| 1788308405 | 20° C | 71% | - | 0 mm | - | - | - |
| 1788307807 | 20° C | 70% | - | 0 mm | - | - | - |
| 1788307208 | 20.56° C | 67% | - | 0 mm | - | - | - |
| 1788306607 | 20.56° C | 64% | - | 0 mm | - | - | - |
| 1788306008 | 21.11° C | 64% | - | 0 mm | - | - | - |
| 1788305410 | 21.11° C | 66% | - | 0 mm | - | - | - |
| 1788304808 | 21.11° C | 65% | - | 0 mm | - | - | - |
| 1788304206 | 20.56° C | 67% | - | 0 mm | - | - | - |
| 1788303607 | 20.56° C | 69% | - | 0 mm | - | - | - |
| 1788303007 | 20.56° C | 68% | - | 0 mm | - | - | - |
| 1788302407 | 21.11° C | 66% | - | 0 mm | - | - | - |
| 1788301808 | 21.11° C | 65% | - | 0 mm | - | - | - |
| 1788301208 | 21.11° C | 66% | - | 0 mm | - | - | - |
| 1788300608 | 21.11° C | 66% | - | 0 mm | - | - | - |
| 1788300007 | 21.11° C | 67% | - | 0 mm | - | - | - |
| 1788299409 | 20.56° C | 68% | - | 0 mm | - | - | - |
| 1788298808 | 20° C | 68% | - | 0 mm | - | - | - |
| 1788298208 | 20.56° C | 68% | - | 0 mm | - | - | - |
| 1788297606 | 20.56° C | 67% | - | 0 mm | - | - | - |
| 1788297006 | 20.56° C | 68% | - | 0 mm | - | - | - |
| 1788296407 | 21.11° C | 67% | - | 0 mm | - | - | - |
| 1788295806 | 20° C | 69% | - | 0 mm | - | - | - |
| 1788295207 | 20° C | 70% | - | 0 mm | - | - | - |
| 1788294630 | 19.44° C | 72% | - | 0 mm | - | - | - |
| 1788294007 | 19.44° C | 73% | - | 0 mm | - | - | - |
* Rain latest hour (hover to see other rain measurements)
** Current wind speed in m/s (hover to see current wind gust speed)